UWE-3

Last updated on Wed Sep 17 2025 00:03:09 GMT+0000 (Coordinated Universal Time)

1 39446U 13066AG 25259.57523639 .00003564 00000+0 33334-3 0 9991 2 39446 97.8316 210.0378 0053187 148.7103 211.7301 14.93683682636685
UTC large
Height (km)
Speed (km/s)
/
Latitude / Longitude
Inclination (degrees)
Orbital Period (minutes)
Azimuth
Elevation
Range (km)
Doppler Factor

Next 0 passes for location: London (51.5072 / 0.1276)

Sorry there are no passes over London.